Location: Rooftop Observatory
(39.0308°N, 87.1711°W)
Time: 12:41:12
(UTC-05:00)

Terra - Visible Passes

Search period start: 19 April 2015 00:00
Search period end: 29 April 2015 00:00
Orbit: 701 x 703 km, 98.2° (Epoch: 19 April)

Date Brightness Start Highest point End Pass type
(mag) Time Alt. Az. Time Alt. Az. Time Alt. Az.
19 Apr 3.3 22:10:41 26° NE 22:10:41 26° NE 22:13:23 10° N visible
19 Apr 4.4 23:49:32 16° NW 23:49:32 16° NW 23:50:46 10° NW visible
20 Apr 3.3 22:53:49 34° NNW 22:53:49 34° NNW 22:56:30 10° NNW visible
21 Apr 3.4 21:58:05 23° NE 21:58:05 23° NE 22:00:50 10° NNE visible
21 Apr 4.1 23:36:58 21° NW 23:36:58 21° NW 23:38:50 10° NNW visible
22 Apr 3.0 22:41:14 38° N 22:41:14 38° N 22:44:13 10° N visible
23 Apr 3.6 21:45:30 19° NE 21:45:30 19° NE 21:48:10 10° NNE visible
23 Apr 3.7 23:24:23 27° NW 23:24:23 27° NW 23:26:47 10° NNW visible
24 Apr 2.9 22:28:39 37° NNE 22:28:39 37° NNE 22:31:50 10° N visible
25 Apr 4.6 00:07:31 12° WNW 00:07:31 12° WNW 00:08:09 10° NW visible
25 Apr 3.8 21:32:55 15° ENE 21:32:55 15° ENE 21:35:17 10° NNE visible
25 Apr 3.3 23:11:48 34° NW 23:11:48 34° NW 23:14:38 10° NNW visible
26 Apr 2.9 22:16:03 33° NE 22:16:03 33° NE 22:19:24 10° N visible
26 Apr 4.3 23:54:55 16° WNW 23:54:55 16° WNW 23:56:28 10° NW visible
27 Apr 4.0 21:20:19 11° ENE 21:20:27 11° ENE 21:21:53 10° NE visible
27 Apr 2.9 22:59:12 43° NNW 22:59:12 43° NNW 23:02:25 10° NNW visible
28 Apr 3.1 22:03:27 27° NE 22:03:27 27° NE 22:06:53 10° N visible
28 Apr 3.9 23:42:21 22° WNW 23:42:21 22° WNW 23:44:35 10° NW visible
